Temperature
15 15 16 16 13 11 13 14 13 14 14 15 15 15 14 14 15 15 15 15 15 15 15 15 15 14 14 14 14 14 14 14 14 14 15 15 15 15 15 14 14 14 14 14 14 14 14 14 14
15 15 15 15 11 12 13 13 13 14 14 15 15 14 14 14 14 15 15 15 15 15 15 14 14 14 14 14 14 14 14 14 14 14 14 14 14 14 14 14 14 14 14 14 14 14 14 14 14
15 15 15 11 11 12 14 14 13 13 14 14 14 14 14 14 14 15 15 15 15 15 15 14 14 14 14 14 14 14 14 14 14 14 14 14 14 14 14 14 14 14 14 14 13 13 13 13 13
14 15 14 11 13 12 13 13 12 13 14 14 13 13 13 14 14 14 15 15 14 14 14 14 14 14 14 14 14 14 14 14 14 14 14 14 14 14 14 14 14 14 14 13 13 13 13 13 13
14 14 11 11 12 12 12 12 13 13 13 13 13 12 13 14 14 14 14 14 14 14 14 14 14 14 14 14 14 14 14 14 13 14 14 14 14 14 14 14 13 13 13 13 13 13 13 13 13
14 11 10 11 12 12 11 13 13 12 12 13 13 12 13 14 14 14 14 13 13 13 13 13 13 13 13 13 13 13 13 13 13 13 13 13 13 13 13 13 13 13 13 13 13 13 13 13 13
12 9 10 11 11 12 12 13 13 12 12 13 13 12 12 13 13 13 13 13 13 13 13 13 13 13 13 13 13 13 13 13 13 13 13 13 13 13 13 13 13 13 12 12 12 12 13 13 13
13 9 10 10 11 12 12 13 13 13 12 13 13 12 12 13 13 13 12 12 12 12 12 12 12 12 12 12 12 13 13 13 13 13 13 13 13 13 12 12 12 12 12 12 12 12 12 12 12
12 9 10 10 11 12 12 12 12 12 12 12 12 12 13 13 13 12 12 12 12 12 12 12 12 12 12 12 12 12 12 12 12 13 13 13 13 12 12 12 12 12 12 12 12 12 12 12 12
11 9 10 11 11 11 11 11 11 12 11 11 12 12 12 12 12 12 12 12 12 12 12 12 12 12 12 12 12 12 12 12 12 12 12 12 12 12 12 12 12 12 12 12 12 12 12 12 12
10 9 10 10 11 11 11 11 11 11 10 11 12 12 12 12 11 11 11 11 11 11 11 11 11 11 11 11 11 11 11 11 11 12 12 12 12 12 12 12 11 11 11 11 11 11 11 11 11
9 9 10 10 11 11 11 11 10 10 11 12 12 12 12 11 11 11 11 11 11 11 11 11 11 11 11 11 11 11 11 11 11 11 11 11 11 11 11 11 11 11 11 11 11 11 11 11 11
9 9 10 10 10 10 10 10 10 10 11 11 11 11 11 11 11 11 11 11 10 10 10 10 11 11 11 11 10 10 10 10 10 11 11 11 11 11 11 11 11 11 11 11 11 11 11 11 11
8 9 9 9 10 10 9 9 9 10 11 11 11 11 11 11 11 11 10 10 10 10 10 10 10 10 10 10 10 10 10 10 10 10 10 10 10 10 10 10 10 10 10 10 10 10 10 10 10
9 8 8 9 9 9 9 9 8 10 10 10 10 10 10 11 11 11 10 10 10 10 10 10 10 10 10 10 10 10 10 9 9 9 10 10 10 10 10 10 10 10 10 10 10 10 10 10 10
8 7 8 8 8 8 9 9 9 10 10 9 10 10 10 10 10 10 10 10 10 9 9 9 9 9 9 9 9 9 9 9 9 9 9 9 9 9 9 9 9 9 9 9 9 9 9 9 9
7 7 7 7 8 7 8 7 8 9 9 9 9 9 9 9 9 9 9 9 9 9 9 9 9 9 9 9 9 9 9 9 9 9 9 9 8 9 9 9 9 9 9 9 9 9 9 9 9
7 6 7 7 7 7 6 6 7 8 8 8 8 9 9 9 9 9 9 9 9 8 8 8 9 9 9 8 8 8 8 8 8 8 8 8 8 8 8 8 8 8 8 8 8 8 8 8 8
7 7 6 6 6 6 6 6 7 7 7 7 7 8 8 9 9 9 9 8 8 8 8 8 8 8 8 8 8 8 8 8 8 8 8 8 8 8 8 8 8 8 8 7 7 7 7 7 7
6 6 6 6 6 6 5 5 6 6 6 7 7 7 8 8 8 8 8 8 8 8 8 8 8 8 8 8 8 8 8 8 8 8 7 7 7 7 7 7 7 7 7 7 7 7 7 7 6
6 6 6 6 5 5 5 6 6 6 6 6 7 7 7 7 7 8 8 8 8 8 8 8 7 7 7 7 7 7 7 7 7 7 7 7 7 7 7 6 6 6 6 6 6 6 6 6 6
6 6 6 5 5 4 5 5 6 5 5 5 6 6 7 7 7 7 7 7 7 7 7 7 7 7 7 7 7 7 7 7 7 6 6 6 6 6 6 6 6 6 6 6 6 6 5 5 5
5 5 5 5 4 4 4 4 5 5 5 5 5 6 6 6 7 7 7 7 7 7 7 7 7 7 6 6 6 6 6 6 6 6 6 6 6 6 5 5 5 5 5 5 5 5 5 5 5
5 4 4 3 3 4 4 4 4 4 5 5 5 5 6 6 6 6 6 6 6 6 6 6 6 6 6 6 6 5 5 5 5 5 5 5 5 5 5 5 5 5 5 5 5 4 4 4 4
5 4 4 4 3 4 3 3 4 4 4 4 4 4 5 5 5 6 6 6 6 6 6 6 6 6 5 5 5 5 5 5 5 5 4 5 5 4 4 4 4 4 4 4 4 4 4 4 4
4 5 4 5 3 3 2 2 4 4 4 4 4 4 4 5 5 5 5 5 5 5 5 5 5 5 5 5 5 4 4 4 4 4 4 4 4 4 4 4 4 3 4 4 4 3 3 3 3
4 3 3 2 1 2 2 2 3 4 3 3 3 3 4 4 4 5 5 5 5 5 5 5 5 5 5 4 4 4 4 4 4 3 3 3 3 3 3 3 3 3 3 3 3 3 3 3 3
3 2 1 2 3 3 3 2 3 4 4 3 2 3 3 4 4 4 4 4 4 4 4 4 4 4 4 4 4 4 3 3 3 3 3 3 3 3 2 2 2 3 3 2 2 2 2 2 2
2 2 2 1 1 2 2 3 3 3 3 2 2 3 3 4 4 4 4 4 4 4 4 4 4 4 4 3 3 3 3 3 2 2 2 2 2 2 2 2 2 2 2 2 2 2 2 1 1
2 2 1 2 1 0 1 3 3 2 2 2 2 3 3 3 3 3 3 3 3 3 3 3 3 3 3 3 3 3 2 2 2 2 2 2 2 2 2 1 1 1 1 1 1 1 1 1 1
Wind_Speed
8 5 3 4 5 4 2 3 2 1 1 1 0 2 4 3 3 3 1 1 3 3 4 6 8 9 9 9 9 10 9 10 10 10 11 11 10 10 10 10 10 10 10 10 10 11 11 11 11
3 2 5 5 4 1 4 4 4 3 2 0 2 2 2 0 0 1 0 0 3 5 5 6 8 9 9 9 9 8 8 9 8 9 10 10 9 10 10 10 9 10 10 10 10 10 11 11 11
2 4 4 4 4 6 4 3 4 2 1 1 2 2 1 1 1 1 1 1 4 5 5 7 9 9 9 9 8 8 7 8 8 8 8 9 9 9 9 9 9 10 9 9 10 10 10 10 10
3 5 5 3 4 5 4 2 1 1 2 3 2 1 1 1 1 1 1 3 5 4 6 7 9 9 9 9 9 8 7 7 7 8 8 8 9 9 9 8 9 9 9 8 9 9 9 9 9
4 4 4 0 5 4 3 2 1 0 1 2 2 1 2 3 1 2 4 4 5 4 5 6 8 8 8 8 8 8 7 7 7 7 8 8 8 8 8 8 8 8 8 8 8 9 8 8 8
4 4 3 4 5 4 3 2 1 0 1 1 1 1 2 1 2 3 4 4 4 4 5 5 6 7 7 8 8 8 8 7 6 6 7 7 8 8 7 7 8 8 7 7 7 8 8 8 7
4 4 4 5 4 4 2 1 3 2 1 2 2 2 2 1 1 3 4 4 4 5 4 4 4 5 6 7 7 7 7 7 6 6 6 6 7 7 7 7 7 7 7 7 7 7 7 7 7
5 4 2 3 4 5 2 0 1 2 2 1 2 4 4 2 3 5 5 4 4 4 3 3 4 5 5 6 7 7 7 6 6 6 6 6 6 7 6 6 6 6 6 6 6 6 6 7 7
4 3 4 6 6 4 1 0 2 1 1 1 0 2 3 4 5 5 3 2 2 2 2 3 3 4 4 5 5 6 6 6 6 6 7 7 6 6 6 5 5 5 5 5 5 5 6 6 6
4 4 6 4 4 3 1 1 1 1 1 1 1 1 3 5 6 6 4 3 2 1 0 1 2 3 4 4 5 6 6 6 7 6 7 7 6 6 6 6 6 5 5 5 5 5 5 6 6
3 5 3 3 2 2 2 2 1 2 4 5 5 3 4 5 5 6 5 4 3 2 0 0 1 2 3 3 4 4 5 5 6 6 6 6 6 6 6 5 5 5 5 5 5 5 5 5 5
2 2 2 3 2 1 3 2 2 4 7 4 4 4 5 6 6 6 6 4 3 3 2 1 1 2 3 4 3 4 4 4 4 4 5 5 4 4 4 4 4 4 4 4 4 4 4 4 3
1 2 2 3 3 2 2 3 3 5 5 2 1 3 5 6 5 4 4 3 3 3 3 2 2 2 3 3 3 3 3 3 3 4 4 5 4 3 3 2 2 3 3 3 3 3 3 3 2
1 1 3 3 2 2 2 4 3 7 3 2 3 4 5 6 5 4 4 4 4 4 4 3 3 3 3 3 3 3 3 3 3 3 3 4 4 3 2 2 2 2 2 2 2 2 2 1 1
1 2 4 2 2 2 1 6 7 7 2 3 3 3 3 4 3 5 5 5 5 4 4 3 3 3 3 3 3 3 3 3 2 2 2 3 4 4 3 2 1 1 2 2 3 2 2 1 1
2 2 3 4 1 2 1 8 6 2 3 5 4 3 3 3 3 4 3 3 4 4 3 3 3 3 3 3 3 3 3 3 2 2 2 3 3 4 3 2 1 1 2 2 2 1 1 1 1
2 1 4 5 2 1 2 8 7 2 3 5 5 4 4 3 3 3 2 3 4 4 4 3 3 3 3 3 3 3 3 2 2 2 2 2 2 3 3 2 1 2 2 1 1 1 1 0 1
4 4 4 5 3 1 5 9 10 5 5 6 6 5 4 4 5 3 2 2 3 3 3 4 3 3 3 3 2 2 2 2 2 1 2 2 2 3 3 2 2 2 2 1 1 1 1 0 1
4 4 6 6 3 3 7 11 12 7 5 6 6 5 5 5 3 2 1 2 2 3 3 3 4 3 3 2 2 2 2 2 1 1 2 2 2 3 3 2 2 2 2 1 1 1 1 1 1
4 4 5 6 3 3 6 10 10 6 6 6 6 6 5 3 2 1 0 1 2 3 3 3 4 4 4 3 3 2 2 1 1 1 1 1 2 3 3 3 2 2 1 1 1 1 1 1 1
4 6 6 5 5 3 4 8 5 3 3 4 4 4 3 4 4 2 1 2 1 1 2 3 4 4 4 3 2 2 2 2 1 1 0 1 1 2 2 3 2 2 2 1 1 2 2 1 0
5 4 4 3 2 4 1 5 6 4 4 4 4 3 4 3 3 2 2 2 2 2 1 2 2 3 3 4 4 4 3 2 2 1 1 1 1 2 2 2 2 2 2 2 1 1 2 2 2
4 1 1 2 2 3 1 3 8 3 4 5 4 4 4 4 3 3 3 2 2 1 1 1 2 3 3 3 4 4 3 2 1 1 1 1 1 1 1 2 2 1 1 2 2 1 2 2 2
2 2 3 2 2 3 4 4 7 4 5 5 3 3 3 3 2 2 1 0 1 1 1 1 2 2 3 3 3 4 4 3 2 1 1 0 0 0 1 1 1 1 1 2 2 2 3 2 2
2 3 3 4 2 5 2 4 9 6 5 5 5 4 3 2 1 1 0 0 1 1 0 1 2 2 2 2 3 3 4 4 4 3 2 1 1 1 1 1 1 1 2 2 2 2 2 3 3
3 5 5 4 4 5 2 6 7 5 3 2 2 2 2 2 2 2 2 1 1 0 0 1 2 2 2 2 2 2 2 2 2 2 3 2 2 2 2 2 2 2 2 2 2 2 2 2 3
3 2 3 4 1 3 6 7 8 2 2 1 1 2 2 2 2 2 2 1 1 1 1 1 2 2 2 2 2 1 2 2 2 2 2 2 2 2 1 2 2 2 2 2 2 2 3 3 3
2 5 4 3 2 4 6 6 5 5 4 2 2 2 3 2 2 2 2 1 1 1 1 0 1 2 2 2 2 1 1 2 2 2 2 2 1 1 2 2 2 2 2 2 2 2 2 3 3
2 2 3 3 3 4 4 7 5 6 4 3 4 4 3 3 2 2 2 2 1 1 0 0 0 1 1 1 1 1 1 1 1 1 2 2 1 2 2 2 2 2 2 2 3 3 3 4 4
3 4 6 4 4 4 4 8 4 4 3 3 4 4 3 3 2 2 2 1 1 1 1 1 0 1 1 1 1 1 1 1 1 1 2 1 2 2 2 2 2 3 3 3 3 4 4 4 4
Wind_Direction
345 9 59 54 57 55 230 243 225 248 231 294 122 123 138 151 165 190 298 110 121 131 144 146 138 137 131 129 128 125 124 122 123 122 120 118 115 111 109 106 105 105 104 100 96 93 91 90 90
347 26 53 62 96 159 259 236 221 228 205 104 51 82 91 254 335 92 357 315 119 121 124 135 134 131 128 126 124 124 126 127 127 126 125 124 120 116 111 108 106 103 103 101 98 94 91 90 90
30 48 80 82 134 190 220 223 218 289 296 69 62 47 131 236 314 204 252 152 104 99 106 126 132 132 129 128 124 123 126 129 132 130 127 124 122 118 112 108 107 104 101 101 101 97 93 91 89
66 48 57 88 208 221 222 242 220 334 1 40 96 23 316 335 272 235 145 122 104 94 97 119 129 129 129 127 126 125 126 129 131 129 129 127 123 121 119 114 110 108 106 104 103 101 97 94 92
58 78 73 143 244 255 257 266 213 22 341 13 94 121 294 340 12 101 116 120 116 101 93 113 126 128 126 125 121 123 121 120 127 128 127 126 125 127 123 118 113 110 108 105 103 106 101 97 93
59 73 117 219 244 269 276 260 166 257 287 334 121 138 255 356 68 104 105 110 107 105 87 99 125 126 126 127 121 113 113 114 119 124 119 120 121 122 121 117 112 108 107 103 100 108 103 99 96
107 113 179 204 235 262 263 189 156 186 236 238 173 152 270 304 99 103 91 91 84 83 79 78 97 120 124 124 118 113 109 106 108 108 104 109 115 114 117 117 112 107 103 103 99 101 104 101 98
119 114 167 211 217 242 267 1 170 183 224 232 151 167 227 226 123 98 84 82 79 69 65 65 72 89 105 118 116 111 107 103 100 93 89 94 101 102 107 111 112 110 107 106 101 97 94 100 99
92 96 207 215 208 234 274 30 337 345 123 340 222 211 225 139 126 113 96 77 71 67 49 59 66 74 89 107 113 107 102 95 90 90 88 89 83 86 90 100 111 112 111 112 108 100 90 84 89
98 173 220 222 212 217 258 201 245 24 337 297 309 332 116 137 145 147 149 164 175 200 29 58 72 79 86 94 95 91 90 85 80 83 87 85 80 79 84 89 97 98 100 105 103 94 86 80 76
133 193 230 261 252 247 253 263 231 167 245 230 221 207 157 155 163 169 176 182 190 198 231 19 74 87 91 90 91 85 85 84 81 83 87 89 85 76 74 74 78 79 83 82 86 82 75 75 75
150 236 234 263 274 268 248 251 264 220 236 236 212 194 171 175 188 194 191 194 189 183 212 187 118 108 105 102 98 95 89 86 85 87 94 94 86 79 74 71 73 76 86 84 79 79 78 74 74
197 256 276 277 292 270 268 256 245 260 260 264 198 174 181 195 205 208 200 192 183 193 205 199 157 136 122 111 107 99 94 99 103 100 100 106 103 93 83 76 76 77 87 93 87 84 85 77 61
238 285 295 293 282 282 253 273 245 258 250 212 199 205 202 203 205 200 195 197 197 201 204 193 176 159 135 133 132 122 113 110 102 101 108 116 117 113 99 78 73 67 80 95 103 99 92 80 66
18 336 320 295 269 273 265 286 245 248 226 231 231 228 221 218 209 209 207 202 199 202 198 183 178 155 149 148 146 127 126 124 114 120 127 135 134 130 123 103 82 78 91 93 92 82 71 58 35
47 32 294 293 301 291 167 264 265 250 207 239 245 243 240 246 235 229 218 206 197 190 186 183 169 154 156 154 144 131 128 128 130 142 137 147 149 145 133 126 127 111 105 103 97 92 73 28 356
42 256 259 289 283 265 210 258 274 276 225 243 246 241 232 253 265 249 221 199 188 181 178 179 167 164 161 148 135 126 122 125 132 140 137 144 153 152 138 129 116 116 93 83 101 72 113 18 325
221 228 249 260 284 283 254 263 278 275 247 245 248 244 233 236 251 246 218 184 170 170 174 173 165 161 148 129 115 108 107 112 103 133 156 158 157 152 138 120 118 118 110 105 115 108 49 62 298
192 217 255 263 279 283 259 270 277 274 256 251 251 241 239 245 259 249 186 156 156 168 167 173 168 170 154 150 156 161 180 190 180 161 159 156 160 153 137 123 123 123 147 171 153 129 57 7 351
220 243 265 286 297 277 280 277 273 256 242 241 238 236 235 246 270 265 212 145 174 181 181 177 179 178 179 178 179 173 160 160 149 104 76 143 157 156 151 137 147 147 150 149 148 127 116 30 42
237 228 246 267 315 317 312 296 282 287 262 264 243 235 233 225 236 243 221 217 214 208 191 188 189 188 189 169 139 117 97 77 80 84 133 66 113 140 143 139 135 142 155 186 194 158 150 185 277
249 239 233 243 298 301 23 292 283 280 289 273 262 252 246 245 240 241 232 229 224 227 207 180 173 163 159 151 154 153 160 177 196 182 170 86 91 109 134 133 130 146 161 180 209 171 172 177 205
222 243 209 219 199 294 281 228 283 293 279 271 262 263 261 249 235 236 234 232 239 217 177 168 148 142 137 143 153 155 164 164 141 136 142 139 97 105 112 133 133 163 171 179 186 178 185 193 197
172 72 54 53 86 273 231 195 276 252 243 266 273 275 277 265 252 247 254 46 9 51 82 126 140 139 142 148 155 165 172 163 152 174 181 196 56 85 122 144 160 183 181 189 198 197 195 201 203
105 100 16 350 343 253 210 211 250 254 246 239 261 280 296 287 262 249 270 1 359 17 82 130 136 148 156 158 169 181 183 178 185 195 200 200 220 251 248 218 198 212 203 197 186 188 207 206 209
187 155 168 215 240 280 274 238 254 261 275 265 270 290 330 342 311 269 239 227 228 239 212 166 166 172 164 168 189 191 184 181 191 197 199 201 213 224 228 225 211 216 213 206 187 200 219 215 220
146 178 168 144 162 278 269 280 299 258 283 320 339 5 343 313 302 291 277 252 232 227 237 211 195 193 181 182 183 188 193 186 192 198 193 204 209 219 211 222 231 233 226 217 204 214 224 223 228
150 147 113 139 191 261 282 269 255 268 262 281 302 311 314 318 321 310 298 285 267 244 261 240 193 207 203 181 184 207 201 193 188 185 202 210 217 223 210 226 235 238 235 223 211 221 224 226 240
132 137 137 140 171 187 266 269 232 224 227 238 256 270 284 295 299 305 309 313 314 331 2 331 202 195 212 193 181 177 198 182 176 198 220 218 219 226 225 232 239 237 238 233 222 226 225 231 245
197 182 157 175 228 203 226 268 272 223 226 224 255 270 282 283 285 293 305 331 339 334 326 297 264 231 232 201 174 184 198 192 210 234 244 224 224 238 239 234 237 241 245 243 235 238 237 230 239
Height
1495 1496 1497 1499 1503 1514 1514 1509 1506 1505 1503 1502 1502 1502 1503 1505 1508 1511 1506 1505 1506 1508 1510 1512 1513 1515 1517 1518 1519 1520 1521 1522 1523 1524 1525 1526 1527 1528 1528 1529 1530 1530 1531 1531 1532 1532 1533 1533 1534
1495 1497 1499 1500 1510 1519 1514 1507 1505 1502 1502 1501 1502 1502 1503 1503 1504 1504 1504 1504 1506 1508 1509 1511 1513 1515 1516 1518 1519 1520 1521 1522 1523 1524 1525 1526 1527 1528 1528 1529 1530 1530 1531 1531 1532 1532 1533 1534 1534
1496 1497 1499 1503 1511 1514 1508 1503 1502 1501 1501 1501 1502 1502 1503 1503 1503 1503 1504 1505 1506 1508 1509 1511 1513 1515 1516 1517 1518 1520 1521 1522 1523 1524 1525 1525 1526 1527 1528 1529 1529 1530 1531 1531 1532 1532 1533 1534 1534
1497 1499 1500 1507 1508 1506 1503 1501 1501 1501 1501 1501 1501 1503 1503 1504 1503 1504 1504 1505 1506 1508 1509 1511 1513 1514 1515 1517 1518 1519 1520 1521 1522 1523 1524 1525 1526 1527 1528 1528 1529 1530 1531 1531 1532 1532 1533 1533 1534
1497 1498 1505 1510 1506 1503 1502 1500 1501 1501 1501 1502 1502 1502 1502 1503 1503 1503 1504 1505 1506 1507 1509 1511 1512 1513 1515 1516 1517 1518 1519 1521 1522 1523 1524 1524 1525 1526 1527 1528 1529 1529 1530 1531 1532 1532 1532 1533 1533
1497 1499 1510 1511 1505 1502 1501 1500 1500 1501 1501 1501 1502 1502 1501 1502 1502 1503 1504 1505 1506 1507 1509 1510 1512 1513 1514 1515 1516 1517 1518 1520 1521 1522 1523 1523 1524 1525 1526 1527 1528 1529 1529 1530 1531 1531 1532 1532 1533
1498 1503 1507 1506 1505 1502 1500 1499 1499 1500 1500 1501 1501 1501 1501 1501 1502 1503 1504 1505 1506 1507 1508 1509 1511 1512 1513 1514 1515 1516 1517 1518 1520 1521 1521 1522 1523 1524 1525 1527 1527 1528 1529 1529 1530 1531 1531 1531 1532
1497 1502 1505 1506 1504 1501 1499 1498 1498 1499 1499 1500 1500 1500 1500 1500 1501 1502 1503 1504 1505 1506 1507 1508 1509 1511 1512 1513 1514 1515 1516 1517 1518 1519 1520 1521 1522 1523 1524 1525 1526 1527 1527 1528 1529 1530 1530 1531 1531
1497 1505 1507 1504 1502 1499 1498 1498 1498 1498 1498 1499 1499 1499 1499 1499 1500 1501 1502 1503 1503 1505 1506 1507 1508 1509 1511 1512 1513 1514 1515 1516 1517 1518 1519 1520 1521 1521 1523 1524 1525 1525 1526 1527 1527 1528 1529 1529 1530
1497 1504 1501 1498 1498 1497 1497 1497 1497 1498 1498 1497 1497 1498 1498 1498 1499 1499 1500 1501 1501 1503 1504 1505 1506 1507 1509 1510 1511 1512 1513 1514 1515 1516 1517 1518 1519 1520 1521 1522 1523 1524 1525 1525 1526 1526 1527 1528 1528
1496 1499 1497 1496 1496 1496 1496 1497 1497 1497 1497 1495 1495 1495 1496 1497 1497 1498 1498 1499 1500 1501 1502 1504 1505 1506 1507 1508 1509 1510 1511 1512 1513 1514 1515 1516 1517 1518 1519 1520 1521 1522 1523 1524 1524 1525 1525 1526 1527
1496 1496 1496 1495 1495 1496 1495 1495 1495 1494 1493 1493 1494 1494 1494 1495 1496 1496 1497 1498 1499 1500 1500 1502 1503 1504 1505 1506 1507 1508 1509 1510 1511 1512 1513 1514 1515 1516 1517 1518 1519 1520 1521 1522 1522 1523 1523 1524 1525
1495 1495 1495 1495 1494 1494 1494 1494 1494 1491 1491 1491 1492 1492 1492 1493 1494 1495 1495 1496 1497 1497 1498 1499 1501 1502 1503 1504 1504 1505 1507 1508 1509 1510 1511 1512 1513 1514 1515 1516 1517 1518 1519 1520 1520 1521 1521 1522 1523
1495 1494 1494 1493 1493 1493 1493 1492 1492 1488 1489 1489 1489 1490 1491 1491 1492 1492 1493 1493 1494 1495 1496 1497 1498 1499 1500 1501 1502 1503 1505 1506 1507 1508 1509 1510 1511 1512 1513 1514 1515 1516 1516 1517 1518 1519 1519 1520 1520
1494 1495 1494 1493 1492 1492 1493 1491 1488 1486 1487 1487 1487 1488 1489 1489 1490 1490 1490 1491 1492 1492 1494 1494 1495 1497 1498 1499 1501 1502 1503 1504 1505 1506 1507 1508 1509 1510 1511 1512 1513 1513 1514 1515 1516 1516 1517 1517 1518
1495 1498 1498 1493 1492 1492 1495 1492 1485 1485 1485 1485 1485 1486 1486 1486 1487 1487 1488 1489 1489 1491 1491 1492 1493 1494 1496 1497 1498 1499 1500 1502 1503 1503 1504 1506 1506 1507 1508 1509 1510 1511 1511 1512 1513 1513 1514 1514 1515
1499 1501 1499 1495 1492 1491 1493 1490 1483 1483 1483 1483 1483 1483 1483 1484 1484 1485 1485 1486 1487 1488 1489 1489 1491 1492 1493 1495 1496 1497 1498 1499 1500 1501 1502 1503 1504 1505 1505 1506 1507 1508 1508 1509 1510 1510 1511 1511 1512
1498 1500 1498 1497 1492 1492 1492 1488 1482 1481 1481 1480 1480 1480 1481 1481 1482 1482 1483 1484 1485 1486 1486 1487 1488 1489 1490 1492 1493 1494 1495 1496 1497 1498 1499 1500 1501 1502 1503 1503 1504 1505 1506 1507 1507 1507 1508 1508 1508
1494 1496 1497 1494 1492 1492 1490 1487 1481 1478 1478 1477 1477 1477 1477 1478 1480 1480 1481 1481 1482 1483 1483 1484 1485 1486 1487 1488 1489 1490 1491 1493 1494 1495 1496 1497 1498 1499 1500 1500 1501 1502 1503 1503 1504 1504 1505 1505 1505
1494 1495 1495 1493 1491 1491 1490 1484 1478 1475 1475 1474 1473 1474 1474 1475 1476 1477 1478 1478 1479 1479 1480 1480 1481 1483 1484 1485 1486 1487 1488 1489 1491 1492 1493 1494 1495 1496 1496 1497 1498 1499 1499 1500 1500 1501 1501 1502 1502
1493 1494 1494 1494 1492 1491 1490 1482 1476 1473 1472 1471 1471 1471 1471 1472 1473 1473 1474 1475 1476 1476 1476 1477 1478 1479 1480 1481 1483 1484 1485 1486 1487 1488 1489 1490 1491 1492 1493 1494 1495 1495 1496 1496 1497 1498 1498 1499 1499
1492 1490 1491 1492 1495 1496 1494 1492 1477 1474 1472 1469 1469 1469 1469 1470 1470 1471 1472 1472 1472 1473 1474 1474 1475 1476 1477 1478 1479 1480 1481 1482 1483 1484 1485 1487 1488 1488 1489 1490 1491 1492 1492 1493 1494 1494 1495 1496 1496
1490 1490 1491 1492 1495 1498 1496 1497 1480 1474 1471 1468 1467 1466 1466 1467 1468 1469 1469 1470 1471 1471 1471 1472 1472 1473 1475 1476 1477 1478 1479 1480 1481 1482 1483 1484 1485 1485 1486 1487 1487 1488 1489 1490 1490 1491 1492 1492 1492
1489 1491 1494 1497 1498 1499 1495 1496 1483 1474 1468 1466 1465 1465 1465 1465 1466 1467 1467 1468 1468 1469 1469 1470 1470 1471 1472 1473 1474 1475 1476 1477 1478 1479 1479 1480 1481 1482 1483 1484 1484 1485 1486 1486 1487 1487 1488 1488 1489
1489 1493 1500 1500 1505 1498 1495 1494 1481 1468 1466 1465 1465 1464 1464 1464 1464 1464 1465 1465 1466 1466 1467 1467 1468 1469 1470 1471 1472 1473 1474 1474 1475 1476 1476 1477 1478 1478 1479 1480 1481 1482 1482 1483 1483 1483 1484 1484 1485
1489 1490 1497 1499 1503 1499 1495 1492 1474 1466 1464 1463 1464 1463 1463 1463 1463 1463 1463 1464 1464 1465 1465 1466 1466 1467 1468 1469 1469 1470 1471 1471 1472 1473 1473 1474 1475 1475 1476 1477 1477 1478 1478 1479 1479 1479 1480 1480 1480
1489 1493 1493 1502 1508 1507 1494 1487 1472 1464 1463 1463 1463 1462 1462 1462 1462 1462 1462 1462 1463 1463 1464 1464 1465 1465 1466 1466 1467 1467 1468 1468 1469 1470 1470 1471 1471 1472 1473 1473 1473 1474 1474 1474 1475 1475 1475 1476 1476
1487 1491 1498 1500 1499 1498 1491 1487 1476 1465 1462 1463 1462 1462 1461 1461 1461 1461 1461 1461 1461 1462 1462 1463 1463 1463 1463 1464 1464 1465 1465 1466 1466 1467 1467 1468 1468 1469 1469 1469 1470 1470 1470 1470 1470 1470 1471 1471 1471
1490 1491 1493 1499 1499 1499 1496 1480 1465 1462 1461 1462 1461 1461 1461 1461 1460 1460 1460 1460 1460 1460 1460 1461 1460 1461 1461 1461 1461 1462 1462 1463 1463 1464 1464 1464 1464 1465 1465 1465 1466 1466 1466 1466 1466 1466 1466 1467 1467
1485 1487 1492 1495 1499 1502 1497 1480 1460 1460 1459 1460 1460 1460 1460 1460 1459 1459 1459 1458 1458 1458 1458 1458 1458 1458 1458 1458 1459 1459 1459 1460 1460 1460 1461 1461 1461 1461 1461 1462 1462 1462 1462 1462 1462 1462 1462 1462 1462